Date String (YYYY-MM-DD hh:mm:ss) UTC,Instrument flags,Ambient pressure (hPa),Sample flow (lpm),Bypass flow (lpm),Sample temperature (°C),Ambient temperature (°C),ASC tube jacket temperature (°C),LED temperature (°C),Box temperature (°C),Sample RH (%),Span deviation,Mass concentration (μg/m³),Mass concentration (μg/m³),Mass concentration (μg/m³)
DateTimeUTC,F1_M11,P_M11,Q1_M11,Q2_M11,T1_M11,T2_M11,T3_M11,T4_M11,T5_M11,U1_M11,ZSPAN_M11,X0_M11,X2_M11,X1_M11
2022-03-23 17:00:00,,0827.1,5.02,0.00,21.5,20.8,00.0,30.6,23.1,05.8,0000.0,0005.91,0001.61,0000.65
2022-03-23 17:01:00,,0827.2,5.01,0.00,21.5,20.8,00.0,30.6,23.1,05.8,0000.0,0002.99,0001.20,0000.62
2022-03-23 17:02:00,,0827.3,4.98,0.00,21.4,20.7,00.0,30.5,22.9,05.9,0000.0,0002.82,0001.13,0000.62
2022-03-23 17:03:00,,0827.5,5.01,0.00,21.4,21.3,00.0,30.5,23.1,05.9,0000.0,0003.02,0001.09,0000.62
2022-03-23 17:04:00,,0827.3,5.01,0.00,21.6,22.6,00.0,30.6,23.5,05.9,0000.0,0003.60,0001.08,0000.62
2022-03-23 17:05:00,,0827.3,4.99,0.00,21.8,22.9,00.0,30.6,23.7,05.9,0000.0,0003.70,0001.09,0000.61
2022-03-23 17:06:00,,0827.1,4.99,0.00,21.8,22.4,00.0,30.6,23.6,06.0,0000.0,0004.14,0001.12,0000.61
2022-03-23 17:07:00,,0827.2,4.99,0.00,21.7,21.9,00.0,30.7,23.4,05.7,0000.0,0004.64,0001.13,0000.62
2022-03-23 17:08:00,,0827.0,5.01,0.00,21.6,21.5,00.0,30.7,23.2,05.8,0000.0,0004.97,0001.17,0000.62
2022-03-23 17:09:00,,0827.2,5.00,0.00,21.6,21.2,00.0,30.6,23.1,05.9,0000.0,0005.29,0001.26,0000.61
2022-03-23 17:10:00,,0827.1,4.99,0.00,21.5,21.0,00.0,30.6,23.1,06.0,0000.0,0006.66,0001.62,0000.62
2022-03-23 17:11:00,,0827.1,5.02,0.00,21.5,20.8,00.0,30.6,23.0,06.1,0000.0,0006.87,0001.69,0000.63
2022-03-23 17:12:00,,0827.2,4.99,0.00,21.4,20.7,00.0,30.6,22.9,06.2,0000.0,0006.91,0001.70,0000.63
2022-03-23 17:13:00,,0827.2,5.01,0.00,21.4,20.5,00.0,30.6,22.9,06.1,0000.0,0006.57,0001.67,0000.62
2022-03-23 17:14:00,,0827.4,4.99,0.00,21.4,20.5,00.0,30.6,22.9,06.2,0000.0,0005.98,0001.64,0000.62
2022-03-23 17:15:00,,0827.0,5.00,0.00,21.3,20.4,00.0,30.5,22.8,06.3,0000.0,0005.46,0001.64,0000.62
2022-03-23 17:16:00,,0827.1,5.00,0.00,21.3,20.5,00.0,30.5,22.9,06.3,0000.0,0005.82,0001.75,0000.62
2022-03-23 17:17:00,,0827.0,4.98,0.00,21.3,20.6,00.0,30.5,22.9,06.2,0000.0,0007.23,0001.88,0000.63
2022-03-23 17:18:00,,0827.0,5.01,0.00,21.3,20.7,00.0,30.5,23.0,06.2,0000.0,0007.11,0001.96,0000.62
2022-03-23 17:19:00,,0827.1,5.01,0.00,21.3,20.8,00.0,30.5,23.0,06.2,0000.0,0007.16,0002.00,0000.61
2022-03-23 17:20:00,,0827.1,5.01,0.00,21.4,20.8,00.0,30.5,23.0,06.2,0000.0,0007.24,0001.94,0000.61
2022-03-23 17:21:00,,0826.9,5.00,0.00,21.4,20.8,00.0,30.5,23.0,06.2,0000.0,0006.53,0001.64,0000.60
2022-03-23 17:22:00,,0827.0,5.01,0.00,21.4,20.9,00.0,30.5,23.1,06.2,0000.0,0006.58,0001.60,0000.59
2022-03-23 17:23:00,,0827.0,4.99,0.00,21.4,20.9,00.0,30.5,23.0,05.9,0000.0,0007.19,0001.70,0000.60
2022-03-23 17:24:00,,0826.9,5.00,0.00,21.4,20.9,00.0,30.5,23.0,05.8,0000.0,0007.55,0001.73,0000.59
2022-03-23 17:25:00,,0827.1,4.99,0.00,21.4,20.9,00.0,30.5,23.1,05.9,0000.0,0007.71,0001.76,0000.59
2022-03-23 17:26:00,,0827.1,5.01,0.00,21.4,20.9,00.0,30.5,23.1,06.0,0000.0,0007.76,0001.76,0000.59
2022-03-23 17:27:00,,0827.1,5.00,0.00,21.4,20.9,00.0,30.5,23.1,05.9,0000.0,0007.54,0001.68,0000.60
2022-03-23 17:28:00,,0827.0,5.01,0.00,21.4,20.9,00.0,30.5,23.1,05.8,0000.0,0005.91,0001.52,0000.60
2022-03-23 17:29:00,,0827.0,4.98,0.00,21.4,21.0,00.0,30.5,23.1,05.9,0000.0,0005.26,0001.40,0000.60
2022-03-23 17:30:00,,0826.9,5.01,0.00,21.4,21.0,00.0,30.5,23.1,06.1,0000.0,0005.14,0001.39,0000.61
2022-03-23 17:31:00,,0826.9,5.00,0.00,21.4,20.9,00.0,30.5,23.1,06.1,0000.0,0005.89,0001.36,0000.62
2022-03-23 17:32:00,,0827.0,5.00,0.00,21.4,20.7,00.0,30.5,23.0,06.1,0000.0,0005.64,0001.34,0000.62
2022-03-23 17:33:00,,0826.9,5.00,0.00,21.3,20.5,00.0,30.4,22.9,06.1,0000.0,0005.34,0001.31,0000.62
2022-03-23 17:34:00,,0826.9,5.00,0.00,21.3,20.5,00.0,30.4,22.9,06.0,0000.0,0004.73,0001.23,0000.62
2022-03-23 17:35:00,,0826.8,4.99,0.00,21.3,20.5,00.0,30.4,22.9,06.0,0000.0,0004.89,0001.39,0000.63
2022-03-23 17:36:00,,0826.8,5.00,0.00,21.3,20.5,00.0,30.4,23.0,06.0,0000.0,0004.91,0001.43,0000.64
2022-03-23 17:37:00,,0827.1,5.00,0.00,21.3,20.6,00.0,30.4,23.0,06.1,0000.0,0005.15,0001.48,0000.65
2022-03-23 17:38:00,,0827.0,5.00,0.00,21.4,20.8,00.0,30.4,23.1,06.2,0000.0,0005.31,0001.51,0000.64
2022-03-23 17:39:00,,0827.2,5.01,0.00,21.4,20.8,00.0,30.4,23.1,06.1,0000.0,0005.49,0001.53,0000.65
2022-03-23 17:40:00,,0827.1,4.99,0.00,21.4,20.9,00.0,30.4,23.2,06.2,0000.0,0006.00,0001.52,0000.64
2022-03-23 17:41:00,,0827.1,5.02,0.00,21.5,21.0,00.0,30.4,23.2,06.2,0000.0,0005.74,0001.45,0000.64
2022-03-23 17:42:00,,0827.0,4.99,0.00,21.5,21.1,00.0,30.4,23.3,06.2,0000.0,0004.66,0001.45,0000.64
2022-03-23 17:43:00,,0827.0,5.01,0.00,21.5,21.1,00.0,30.4,23.2,06.0,0000.0,0004.39,0001.49,0000.66
2022-03-23 17:44:00,,0826.9,4.98,0.00,21.5,21.0,00.0,30.4,23.2,06.0,0000.0,0004.34,0001.47,0000.65
2022-03-23 17:45:00,,0826.9,5.01,0.00,21.5,21.0,00.0,30.4,23.2,06.0,0000.0,0004.25,0001.45,0000.66
2022-03-23 17:46:00,,0827.0,5.01,0.00,21.5,21.0,00.0,30.5,23.2,05.9,0000.0,0003.95,0001.37,0000.65
2022-03-23 17:47:00,,0826.9,5.00,0.00,21.5,20.9,00.0,30.4,23.1,05.8,0000.0,0003.65,0001.32,0000.65
2022-03-23 17:48:00,,0827.0,5.00,0.00,21.4,20.7,00.0,30.4,23.0,05.8,0000.0,0004.41,0001.28,0000.64
2022-03-23 17:49:00,,0827.1,5.01,0.00,21.4,20.7,00.0,30.4,23.1,05.8,0000.0,0004.96,0001.27,0000.63
2022-03-23 17:50:00,,0827.1,5.00,0.00,21.4,20.7,00.0,30.4,23.1,06.0,0000.0,0004.81,0001.25,0000.62
2022-03-23 17:51:00,,0827.1,5.00,0.00,21.4,20.8,00.0,30.4,23.1,06.0,0000.0,0004.48,0001.26,0000.62
2022-03-23 17:52:00,,0827.1,4.99,0.00,21.4,20.8,00.0,30.5,23.1,06.1,0000.0,0005.75,0001.29,0000.62
2022-03-23 17:53:00,,0827.1,5.01,0.00,21.4,20.9,00.0,30.5,23.1,06.2,0000.0,0005.84,0001.31,0000.63
2022-03-23 17:54:00,,0827.0,5.01,0.00,21.5,20.9,00.0,30.5,23.2,06.1,0000.0,0005.83,0001.27,0000.62
2022-03-23 17:55:00,,0826.8,5.00,0.00,21.5,20.9,00.0,30.5,23.1,06.1,0000.0,0005.75,0001.23,0000.62
2022-03-23 17:56:00,,0827.0,5.01,0.00,21.4,20.5,00.0,30.4,22.9,06.0,0000.0,0006.88,0001.26,0000.62
2022-03-23 17:57:00,,0827.0,5.00,0.00,21.3,20.4,00.0,30.4,22.8,06.0,0000.0,0008.31,0001.39,0000.63
2022-03-23 17:58:00,,0827.0,5.00,0.00,21.3,20.4,00.0,30.4,22.9,06.1,0000.0,0008.35,0001.39,0000.62
2022-03-23 17:59:00,,0827.1,5.00,0.00,21.3,20.4,00.0,30.4,22.9,06.2,0000.0,0007.89,0001.38,0000.61
